Theta_e
316 312 308 305 305 307 307 306 305 304 304 304 305 305 305 304 304 304 304 304 304 305 306 306 306 305 309 308 307 307 308 307 306 307 310 311 312 312 309 310 310 308 309 310 309 309 310
315 313 310 307 304 306 307 307 305 305 304 304 305 305 305 305 304 304 305 305 305 305 305 306 306 306 309 309 308 307 308 308 308 308 309 310 311 311 310 310 309 310 309 309 309 309 309
316 314 311 309 305 305 306 307 306 305 305 305 305 304 305 305 305 304 304 304 304 304 305 306 307 308 310 308 308 307 308 308 308 308 309 310 311 311 309 309 310 309 309 308 309 309 308
317 316 314 311 308 305 306 307 307 306 305 305 305 305 305 305 306 305 305 304 305 305 305 305 306 307 307 308 308 308 307 308 308 308 308 309 310 309 309 309 309 309 309 309 308 308 309
316 317 316 314 309 306 305 306 307 307 306 306 306 306 305 305 305 305 305 304 306 306 306 306 306 309 307 307 307 308 307 306 306 306 307 308 309 310 310 310 309 308 307 309 309 307 307
319 316 316 316 311 308 306 305 306 307 306 307 307 307 306 305 305 305 304 305 305 305 305 305 306 308 306 307 307 308 308 307 307 307 309 309 312 307 305 307 311 308 307 307 309 307 307
318 319 316 316 316 310 307 305 304 306 307 307 308 308 308 306 305 305 304 305 306 308 305 308 307 307 306 307 307 307 307 308 309 308 308 310 307 307 308 308 308 307 308 306 307 307 307
319 319 320 316 317 316 312 308 305 305 307 308 308 308 309 308 304 305 305 304 309 307 305 304 305 305 306 306 308 306 307 309 310 308 309 307 308 307 308 308 308 308 307 306 304 308 307
321 320 319 320 316 317 316 312 307 304 306 307 308 309 309 309 306 304 305 304 305 306 308 304 306 305 304 307 306 306 307 308 308 309 308 310 308 307 307 307 307 307 307 305 305 306 307
319 321 321 320 320 316 316 316 312 306 306 306 307 308 309 309 307 305 305 305 305 305 308 308 304 306 305 306 305 305 306 307 307 307 305 305 306 307 307 308 307 309 306 306 307 306 304
319 318 321 321 320 320 316 317 316 311 305 305 306 308 309 309 309 305 307 305 304 310 312 307 304 305 305 308 306 306 306 310 307 305 307 308 306 306 307 307 306 309 305 306 306 307 306
318 318 317 321 321 321 320 316 317 316 310 304 304 307 308 309 308 306 304 303 308 309 311 302 305 306 307 307 306 305 306 306 307 305 304 305 305 305 305 305 306 306 306 307 305 305 298
317 318 318 320 321 321 321 319 317 316 315 307 304 306 308 309 308 305 304 307 306 308 305 304 305 305 307 307 307 306 307 306 306 304 302 305 304 303 304 306 306 306 307 299 302 304 301
312 313 318 319 319 320 321 321 319 317 316 311 306 307 307 309 308 304 303 306 302 302 305 305 306 306 307 306 307 307 305 305 303 305 299 303 304 304 303 305 307 305 303 300 299 307 302
309 311 315 316 319 319 319 320 320 318 317 314 307 308 305 309 307 303 311 301 306 308 309 306 306 306 306 306 306 307 307 305 303 302 303 301 303 303 303 304 304 308 305 303 300 294 302
306 308 310 311 315 317 319 319 319 320 317 315 308 308 305 307 307 303 306 306 304 314 306 305 308 307 306 306 306 307 306 305 303 302 302 303 303 301 302 304 304 305 303 305 300 299 301
305 305 306 309 310 312 316 319 318 319 317 314 308 308 306 308 305 307 303 303 306 311 307 307 310 309 310 307 307 308 308 304 303 301 302 297 301 304 300 301 305 302 303 301 303 303 302
300 304 303 305 309 310 312 316 318 319 317 313 308 303 307 306 303 302 301 303 308 305 305 306 311 311 309 308 310 312 308 306 303 301 300 300 303 303 300 300 300 302 306 302 302 303 299
298 302 304 304 305 308 309 311 315 318 317 311 307 305 305 303 301 299 299 306 307 304 304 305 307 308 308 311 311 308 305 303 302 302 301 299 301 300 305 303 300 302 302 303 300 301 300
298 297 301 302 303 304 307 308 312 314 316 312 308 302 300 302 303 300 299 303 305 306 305 306 307 307 309 307 307 306 304 303 302 303 302 301 298 303 310 312 304 300 301 302 300 296 301
297 298 298 299 300 301 303 306 309 311 315 313 309 303 302 300 299 303 303 304 306 305 304 307 306 307 309 306 304 305 303 302 303 302 301 300 300 295 296 301 303 302 301 300 300 302 305
296 298 298 297 298 298 300 305 306 310 312 312 308 305 302 301 304 304 306 304 307 306 304 304 308 307 309 310 313 307 304 303 306 302 301 301 305 299 299 297 299 300 300 300 301 297 299
297 296 297 298 296 297 298 302 305 307 310 311 310 310 309 304 303 304 306 304 307 307 305 306 307 308 310 311 308 307 308 309 306 303 301 301 304 305 308 295 298 306 302 301 300 300 301
298 297 296 298 298 296 296 299 302 306 307 307 310 310 310 307 305 304 306 307 308 308 308 306 307 309 306 309 309 312 307 303 302 301 302 302 305 306 309 301 315 310 303 301 302 303 301
297 297 296 297 298 296 296 297 299 301 305 305 308 310 310 305 306 306 306 307 308 310 306 304 307 308 309 311 309 311 309 309 302 297 299 301 305 307 310 301 307 311 302 302 304 310 303
294 298 296 296 297 297 296 296 296 298 302 303 305 308 310 307 306 308 307 308 307 308 303 301 304 306 310 305 309 314 314 314 308 301 297 298 301 310 307 312 314 310 303 302 302 309 306
294 295 297 296 296 297 296 295 294 296 299 301 303 305 306 307 308 308 308 308 308 307 305 301 302 305 305 305 311 313 315 306 306 306 301 301 300 306 309 311 310 307 301 302 309 315 304
293 294 297 296 295 297 297 295 294 293 296 299 304 304 305 302 306 308 308 308 309 307 305 301 303 302 302 311 312 310 313 308 301 300 300 302 304 303 306 308 311 304 299 307 308 304 303
292 293 296 295 295 296 296 295 293 293 294 295 301 303 305 303 304 307 308 309 309 309 307 302 307 302 305 308 306 307 309 303 301 305 298 306 304 303 305 307 306 303 308 307 307 305 305
Wind_Speed
15 12 11 12 12 11 9 7 7 6 4 4 3 3 2 4 4 3 3 2 0 2 5 4 4 7 4 5 5 6 7 5 3 6 7 7 7 3 5 6 8 5 4 7 6 5 4
16 15 14 13 13 12 11 9 8 8 6 5 4 4 3 4 5 6 5 2 3 3 3 7 5 4 2 4 4 7 7 7 6 6 5 5 8 7 10 5 4 4 8 8 5 3 4
16 15 15 15 14 14 12 10 9 9 7 6 6 4 3 3 4 5 4 1 1 1 2 4 8 5 3 3 4 6 6 10 8 8 10 10 9 3 6 4 6 9 3 1 4 4 1
17 17 15 15 15 14 14 12 11 10 8 7 7 5 4 3 3 2 1 3 0 2 2 4 4 4 4 6 4 5 5 7 8 10 11 10 9 10 5 10 3 2 2 2 2 1 2
18 19 17 15 15 16 15 14 13 12 10 9 8 7 6 5 3 2 2 1 2 2 3 5 4 3 4 5 2 3 4 4 6 8 8 6 6 6 4 3 3 3 1 1 1 3 1
23 20 20 16 16 16 17 16 15 14 13 11 9 7 7 5 4 2 1 5 3 4 4 6 6 1 5 3 3 2 3 2 3 3 3 3 4 4 5 5 1 3 3 4 2 3 2
27 25 21 20 17 17 17 16 17 16 14 12 11 9 7 7 5 3 4 7 3 2 3 3 4 3 5 4 4 3 3 4 4 4 3 5 6 3 2 2 0 1 2 5 3 1 2
31 29 25 22 20 18 17 16 17 18 16 14 12 10 8 7 6 5 7 4 4 4 8 6 8 6 6 3 0 2 3 1 1 3 1 6 3 0 2 2 2 3 2 4 6 2 2
35 32 30 26 23 22 19 17 16 18 18 15 13 12 9 7 7 6 7 7 3 6 3 2 3 6 4 3 2 4 2 3 5 5 5 5 3 0 2 3 4 3 2 2 4 9 4
31 33 33 31 27 25 22 20 17 17 19 17 15 13 10 8 5 7 7 9 6 5 4 2 1 2 3 6 2 2 4 1 4 4 4 5 1 0 1 3 3 2 1 2 4 6 2
33 31 32 34 32 29 26 22 20 18 19 19 18 14 12 11 5 8 4 9 12 5 2 2 3 3 4 1 6 3 3 3 3 3 3 2 1 1 2 1 2 2 1 1 2 2 2
31 32 34 37 36 33 30 26 23 20 19 19 19 17 15 13 11 6 9 13 8 6 5 2 5 4 4 2 1 3 2 4 6 4 6 3 2 3 1 1 1 1 1 1 2 2 3
20 30 32 34 32 38 36 31 27 24 21 19 20 19 17 14 10 11 14 11 4 4 4 4 5 5 4 4 2 3 3 2 3 4 2 3 1 1 2 1 2 0 3 4 5 4 4
12 9 22 32 32 30 36 37 32 27 24 21 20 20 19 16 12 16 18 4 3 4 6 3 5 5 4 5 2 3 3 2 1 3 4 4 5 1 4 2 1 2 2 4 4 2 5
21 19 16 20 27 34 33 31 37 31 27 24 22 21 20 18 15 20 13 2 9 8 7 9 4 5 3 3 4 4 5 5 5 5 6 4 3 1 3 2 2 1 2 2 6 2 3
22 21 20 21 18 18 34 32 29 36 33 30 27 21 20 20 19 21 3 6 5 4 6 3 6 4 7 7 6 6 7 2 5 1 1 5 2 2 2 2 2 1 2 3 3 1 4
20 22 24 24 24 17 16 33 33 31 38 34 29 12 13 22 22 13 4 7 6 6 7 6 5 5 5 8 8 7 8 1 4 4 2 4 3 3 3 3 5 1 1 2 2 3 4
26 15 22 23 27 24 16 17 33 33 40 39 22 3 19 28 8 4 4 6 7 6 5 3 3 2 6 7 6 5 6 1 9 12 6 3 5 3 6 3 2 2 2 4 4 4 1
21 24 18 21 23 27 21 19 15 32 38 44 20 8 26 35 5 3 4 4 6 5 6 7 7 4 1 6 5 4 5 2 10 4 6 7 1 2 6 2 3 3 4 3 3 3 5
24 20 26 27 20 20 26 20 16 31 35 44 16 4 5 18 4 7 6 5 7 7 5 5 5 6 4 3 5 6 4 2 4 3 5 5 3 6 5 4 4 2 3 5 4 3 3
27 24 24 25 27 22 22 25 19 14 39 44 11 6 12 7 7 4 8 11 8 7 3 8 2 4 8 4 3 4 4 3 2 6 3 1 4 3 4 6 4 5 5 7 9 7 6
28 25 26 23 26 26 25 19 22 11 54 40 15 7 9 5 20 17 8 9 14 5 8 6 5 12 7 7 8 10 9 5 6 3 5 3 3 2 4 0 3 5 8 9 14 4 11
29 29 28 25 22 28 29 23 19 24 32 14 21 23 14 11 7 15 16 7 14 11 11 8 12 7 7 7 9 16 5 11 17 11 7 6 6 3 4 1 1 8 11 14 5 6 9
29 30 29 29 26 22 23 30 23 24 16 8 17 21 11 4 10 13 14 20 14 20 9 7 16 7 11 25 26 22 21 22 16 8 6 7 6 2 3 1 3 8 4 6 14 9 15
27 30 29 30 26 20 20 25 31 25 19 17 9 18 10 3 14 9 12 15 21 10 3 8 7 10 33 12 5 4 3 3 2 5 5 5 5 3 3 3 6 10 5 7 7 8 16
37 27 32 28 29 22 19 21 23 32 21 26 15 18 8 6 11 18 12 16 9 12 2 3 5 35 18 4 3 6 6 4 6 2 6 4 4 2 3 3 5 7 3 7 5 6 3
30 33 30 30 29 26 21 18 16 26 28 17 22 18 21 5 6 26 8 14 13 12 4 6 11 8 7 3 3 4 5 5 7 10 6 4 2 5 5 4 6 11 10 9 4 6 1
30 37 33 32 28 28 26 21 15 14 25 22 15 24 21 7 5 23 21 19 18 23 6 13 7 3 2 4 6 4 4 7 4 5 8 9 10 4 3 4 8 16 6 7 5 2 1
25 33 28 34 31 27 26 20 16 14 20 19 17 19 13 14 6 13 19 25 30 36 25 27 5 10 11 4 3 3 2 3 6 5 4 4 8 8 12 9 4 24 13 18 8 3 3
Wind_Direction
242 251 249 238 234 234 239 240 241 247 251 270 276 302 316 320 335 332 311 308 314 85 63 68 81 106 112 77 72 41 42 48 101 114 112 97 82 86 103 111 58 82 135 96 109 75 301
249 253 251 240 235 236 237 239 241 245 240 240 258 280 301 314 324 336 325 270 182 174 70 48 122 128 139 86 96 57 53 62 81 103 103 119 85 110 87 61 69 120 128 132 117 96 236
254 255 255 244 233 231 234 233 244 246 244 247 242 255 269 296 318 343 351 92 168 113 174 123 88 95 113 124 113 81 69 75 78 91 108 118 132 145 112 98 115 141 102 194 193 124 289
250 255 255 246 238 233 228 231 230 235 241 245 251 252 256 257 285 308 18 349 47 127 155 129 143 124 101 134 129 102 89 81 84 86 95 100 109 97 80 119 126 188 95 107 221 73 152
248 248 253 251 244 236 230 226 230 234 234 237 239 244 257 259 259 247 279 256 123 112 152 152 126 113 127 140 134 128 118 106 87 92 87 83 88 85 102 91 23 4 246 82 207 139 230
249 246 246 248 246 243 240 234 227 227 232 233 243 251 256 251 259 267 229 150 165 163 126 124 126 114 161 150 138 131 129 112 82 107 86 62 67 72 29 46 166 310 359 322 300 196 193
245 246 243 244 243 243 245 242 236 228 229 231 232 236 247 254 244 217 164 143 162 184 150 128 114 120 129 132 121 115 130 116 103 58 67 37 67 72 54 49 10 347 354 296 303 113 314
242 244 242 241 240 240 241 242 241 231 226 223 230 232 235 249 252 220 191 203 211 149 109 101 117 113 135 167 354 73 126 101 48 86 360 32 80 268 326 21 54 33 334 314 283 333 329
241 239 241 239 239 238 239 238 239 232 227 225 223 229 228 231 250 232 203 208 199 145 83 118 140 122 155 156 26 348 95 114 95 56 16 116 154 154 349 42 39 49 113 27 260 318 267
262 249 242 237 235 237 234 235 235 231 226 224 225 221 222 220 233 224 213 198 181 158 74 237 126 134 154 149 63 64 85 47 41 134 102 90 254 321 47 87 354 206 14 338 313 8 316
254 258 253 242 235 234 234 232 233 231 227 226 223 216 214 207 194 196 210 174 161 176 43 126 151 162 140 174 138 55 97 69 85 95 110 192 118 57 79 127 346 195 289 257 295 327 1
257 253 255 246 235 235 231 229 229 228 227 225 223 215 209 206 205 185 165 158 159 49 251 182 148 157 122 166 118 122 82 90 123 79 34 94 44 44 78 312 281 310 245 277 3 60 33
237 247 246 244 248 235 233 225 225 224 223 221 220 213 209 204 194 180 164 158 51 138 334 204 185 161 178 153 155 196 143 87 145 79 341 353 43 63 15 13 303 318 55 338 353 11 207
273 260 232 240 243 249 233 227 219 219 220 216 214 212 210 203 186 173 166 66 107 238 210 183 140 126 179 153 150 164 128 152 312 96 97 137 319 11 345 56 198 39 124 144 228 302 274
281 275 255 250 226 235 240 231 226 214 214 212 206 209 210 199 190 176 171 114 198 198 167 148 73 113 200 216 152 155 190 173 195 175 141 118 296 348 33 358 63 249 48 146 103 45 30
267 268 271 267 241 220 230 234 231 221 209 207 201 203 210 193 186 179 120 229 210 188 134 155 153 163 166 189 159 170 183 197 173 259 244 190 52 298 334 341 8 354 182 65 10 46 303
262 265 268 267 265 254 227 228 226 235 204 201 192 180 199 183 177 176 185 224 215 199 162 151 182 154 173 169 176 180 181 335 152 146 69 133 102 297 16 213 188 126 56 76 112 134 167
246 250 260 263 263 264 245 220 226 227 211 192 172 157 175 170 157 185 168 194 201 162 165 146 136 139 160 154 155 163 154 70 167 149 147 191 134 166 226 289 339 310 199 170 125 255 173
272 246 245 252 256 256 259 250 211 218 220 182 164 146 171 177 175 210 264 220 211 143 181 171 174 186 26 154 111 121 102 29 151 137 158 188 50 20 337 355 357 246 214 177 116 80 209
267 263 249 249 245 254 252 252 225 214 217 188 156 135 158 202 199 149 156 200 185 204 173 170 142 125 113 72 24 141 123 176 165 130 128 170 103 164 196 192 130 223 231 194 149 130 203
253 254 253 252 254 247 257 245 240 211 212 194 168 194 176 189 228 187 178 174 169 180 225 174 33 196 158 129 75 119 107 140 56 145 89 154 167 155 250 236 216 223 196 188 202 208 187
249 249 245 251 250 253 244 241 239 223 203 192 173 157 178 155 178 186 185 207 197 168 148 208 182 199 174 158 182 185 144 183 185 147 172 205 118 117 290 337 190 261 233 210 223 234 266
245 245 243 244 250 249 244 233 229 230 198 214 191 198 176 167 163 178 208 172 199 168 206 191 182 133 175 187 131 112 115 166 156 147 171 143 134 132 260 62 65 295 229 203 197 206 190
235 241 243 238 243 249 247 233 232 224 219 233 196 193 180 169 176 203 190 198 191 194 168 179 181 141 146 130 108 94 73 74 64 32 153 131 135 126 235 12 214 238 165 178 209 230 212
255 233 236 232 237 237 237 234 238 238 227 236 225 196 178 161 191 186 204 194 201 156 117 156 164 174 155 137 71 97 65 74 85 31 1 60 133 161 192 197 312 299 197 163 176 278 215
258 232 234 232 231 230 232 236 245 237 233 228 231 216 188 149 213 185 192 182 172 191 114 98 138 153 157 105 112 182 186 161 194 80 13 55 58 142 150 212 228 243 161 166 163 289 147
256 244 226 230 226 224 225 228 237 234 232 229 226 221 225 206 204 188 181 189 161 165 142 141 138 179 164 131 145 172 198 160 170 167 164 134 98 198 197 225 280 269 162 148 105 239 182
248 253 227 224 224 219 217 222 229 236 231 227 209 212 212 200 227 196 194 166 174 176 156 156 114 201 123 149 174 178 181 205 142 165 177 161 163 175 153 210 271 181 111 192 199 149 133
245 250 231 217 219 213 215 215 222 232 223 220 218 204 204 204 223 210 205 197 201 194 179 171 184 156 163 154 167 149 172 155 155 210 164 204 182 179 188 200 215 187 223 218 194 187 257